EW5795 Weather Reports


Display with metric or nautical units.
time (UTC)temp
F
wind
direction
speed
MPH
gust
MPH
rain 1hr
in
rain 24hr
in
rain mn
in
humidity
%
barometer
mb
20260505124515 59 76 5.0 13.0 0.00 0.00 0.00 65 1010.5
20260505123012 59 58 5.0 13.0 0.00 0.00 0.00 64 1010.6
20260505121512 59 55 4.0 10.0 0.00 0.00 0.00 67 1010.7
20260505120010 58 46 6.0 16.0 0.00 0.00 0.00 67 1010.7
20260505114505 58 80 6.0 15.0 0.00 0.00 0.00 66 1010.8
20260505113002 58 75 6.0 18.0 0.00 0.00 0.00 69 1010.9
20260505111559 56 78 9.0 17.0 0.00 0.00 0.00 68 1011.0
20260505110117 56 61 7.0 12.0 0.00 0.00 0.00 69 1011.0
20260505101601 56 120 6.0 14.0 0.00 0.00 0.00 70 1011.4
20260505100057 55 70 4.0 12.0 0.00 0.00 0.00 70 1011.4
20260505094556 56 45 6.0 13.0 0.00 0.00 0.00 69 1011.2
20260505093053 56 88 4.0 14.0 0.00 0.00 0.00 70 1011.0
20260505091552 56 100 6.0 14.0 0.00 0.00 0.00 70 1011.0
20260505090048 56 57 5.0 14.0 0.00 0.00 0.00 70 1011.3
20260505084546 55 51 3.0 15.0 0.00 0.00 0.00 70 1011.2
20260505083046 55 32 6.0 13.0 0.00 0.00 0.00 73 1011.4
20260505081551 53 36 3.0 13.0 0.00 0.00 0.00 76 1011.6
20260505080048 56 54 6.0 14.0 0.00 0.00 0.00 71 1011.5
20260505074542 56 66 6.0 13.0 0.00 0.00 0.00 73 1011.7
20260505073047 55 82 8.0 12.0 0.00 0.00 0.00 73 1011.9
20260505071549 54 54 5.0 10.0 0.00 0.00 0.00 75 1011.8
20260505070035 53 53 5.0 12.0 0.00 0.00 0.00 74 1011.8
20260505064531 53 42 3.0 11.0 0.00 0.00 0.00 76 1011.7
20260505063027 51 49 3.0 10.0 0.00 0.00 0.00 80 1011.7
20260505061525 50 78 4.0 12.0 0.00 0.00 0.00 81 1011.8
20260505060026 49 41 2.0 9.0 0.00 0.00 0.00 81 1011.9
20260505054532 49 74 3.0 10.0 0.00 0.00 0.00 82 1011.7
20260505053030 49 72 3.0 9.0 0.00 0.00 0.00 83 1011.7
20260505051533 49 83 6.0 11.0 0.00 0.00 0.00 84 1011.5
20260505041515 49 69 3.0 7.0 0.00 0.00 0.00 87 1011.6
20260505040010 49 46 8.0 12.0 0.00 0.00 0.00 87 1011.4
20260505034508 49 59 2.0 7.0 0.00 0.00 0.00 87 1011.5
20260505033010 49 88 2.0 8.0 0.00 0.00 0.00 87 1011.5
20260505031507 49 84 3.0 9.0 0.00 0.00 0.00 87 1011.3
20260505030018 49 47 4.0 8.0 0.00 0.00 0.00 87 1011.4
20260505024504 49 69 2.0 9.0 0.00 0.00 0.00 87 1011.5
20260505023003 49 74 3.0 11.0 0.00 0.00 0.00 87 1011.7
20260505021502 49 41 4.0 10.0 0.00 0.00 0.00 87 1011.8
20260505020105 49 65 3.0 8.0 0.00 0.00 0.00 87 1011.8
20260505014601 49 65 3.0 7.0 0.00 0.01 0.00 87 1011.9
20260505013058 49 99 2.0 7.0 0.00 0.01 0.00 87 1011.9
20260505011557 49 89 3.0 9.0 0.00 0.01 0.00 87 1012.2
20260505004554 49 80 3.0 10.0 0.00 0.01 0.00 87 1012.4
20260505003053 49 84 3.0 10.0 0.00 0.01 0.00 87 1012.4
20260505001551 50 24 5.0 10.0 0.00 0.01 0.00 87 1012.5
20260505000050 50 88 3.0 6.0 0.00 0.01 0.00 87 1012.7
20260504234547 50 70 4.0 9.0 0.00 0.01 0.00 87 1012.8
20260504233049 50 63 3.0 6.0 0.00 0.01 0.00 87 1012.7
20260504231545 50 86 4.0 7.0 0.00 0.01 0.00 87 1012.9
20260504230044 50 50 4.0 11.0 0.00 0.01 0.00 87 1012.9
20260504224542 50 82 2.0 7.0 0.00 0.01 0.00 87 1013.0
20260504223041 50 67 4.0 8.0 0.00 0.01 0.00 86 1013.1
20260504221540 50 73 5.0 10.0 0.00 0.01 0.00 86 1013.3
20260504220036 51 92 7.0 14.0 0.00 0.01 0.00 86 1013.3
20260504214539 51 71 4.0 9.0 0.00 0.01 0.01 86 1013.4
20260504213031 51 55 4.0 10.0 0.00 0.01 0.01 86 1013.3
20260504211530 51 84 4.0 10.0 0.00 0.01 0.01 86 1013.3
20260504210028 51 38 6.0 13.0 0.00 0.01 0.01 86 1013.3
20260504204528 52 88 5.0 10.0 0.00 0.01 0.01 86 1013.3
20260504203025 52 330 1.0 7.0 0.00 0.01 0.01 86 1013.3
20260504201524 52 7 0.0 6.0 0.00 0.01 0.01 87 1013.3
20260504200035 53 31 2.0 6.0 0.00 0.01 0.01 87 1013.1
20260504194522 52 3 1.0 5.0 0.00 0.01 0.01 87 1013.0
20260504193021 53 23 1.0 5.0 0.00 0.01 0.01 86 1012.9
20260504191535 53 344 2.0 10.0 0.00 0.01 0.01 86 1012.9
20260504190018 53 331 1.0 6.0 0.00 0.01 0.01 86 1012.8
20260504184518 53 319 2.0 9.0 0.00 0.01 0.01 86 1012.8
20260504183034 53 36 2.0 9.0 0.00 0.01 0.01 86 1012.7
20260504181523 54 334 2.0 9.0 0.00 0.01 0.01 86 1012.7
20260504180020 54 25 1.0 9.0 0.00 0.01 0.01 86 1012.6
20260504174519 55 309 3.0 8.0 0.00 0.01 0.01 85 1012.7
20260504173014 55 312 1.0 6.0 0.00 0.01 0.01 85 1012.7
20260504171514 56 317 2.0 6.0 0.00 0.01 0.01 85 1012.6